Location: Theodore Roosevelt National Park
(46.9990°N, 103.4631°W)
Time: 12:07:20
(UTC-06:00)

Iridium 37 - Visible Passes

Search period start: 31 March 2015 00:00
Search period end: 10 April 2015 00:00
Orbit: 776 x 779 km, 86.4° (Epoch: 30 March)

Date Brightness Start Highest point End Pass type
(mag) Time Alt. Az. Time Alt. Az. Time Alt. Az.
31 Mar 5.6 19:45:00 10° N 19:50:16 87° W 19:55:29 10° S visible
31 Mar 8.7 21:28:08 10° NW 21:30:16 12° WNW 21:32:08 10° W visible
01 Apr 8.2 20:53:08 10° NNW 20:57:03 21° W 21:00:50 10° SW visible
02 Apr 7.3 20:18:59 10° NNW 20:23:45 36° W 20:28:26 10° SSW visible
04 Apr 8.6 20:53:55 10° NW 20:56:58 15° WNW 20:59:49 10° WSW visible
05 Apr 8.0 20:19:24 10° NNW 20:23:44 26° W 20:27:57 10° SW visible
07 Apr 9.1 20:55:32 10° WNW 20:56:52 11° WNW 20:57:53 10° W visible
08 Apr 8.5 20:20:01 10° NW 20:23:40 19° W 20:27:10 10° WSW visible
